TimeMST,TemperatureF,Dew PointF,Humidity,Sea Level PressureIn,VisibilityMPH,Wind Direction,Wind SpeedMPH,Gust SpeedMPH,PrecipitationIn,Events,Conditions,WindDirDegrees,DateUTC
12:15 AM,39.2,23.0,52,30.17,10.0,NNW,6.9,-,N/A,,Overcast,340,2013-01-02 07:15:00
12:55 AM,39.2,21.2,49,30.16,10.0,NW,5.8,-,N/A,,Overcast,320,2013-01-02 07:55:00
1:15 AM,39.2,21.2,49,30.15,10.0,NE,4.6,-,N/A,,Overcast,40,2013-01-02 08:15:00
1:35 AM,39.2,21.2,49,30.15,10.0,North,8.1,-,N/A,,Overcast,10,2013-01-02 08:35:00
1:55 AM,39.2,19.4,45,30.15,10.0,North,6.9,-,N/A,,Overcast,10,2013-01-02 08:55:00
2:15 AM,39.2,19.4,45,30.15,10.0,North,3.5,-,N/A,,Overcast,350,2013-01-02 09:15:00
2:35 AM,39.2,19.4,45,30.15,10.0,NNW,5.8,-,N/A,,Overcast,340,2013-01-02 09:35:00
2:55 AM,37.4,19.4,48,30.14,10.0,NNW,8.1,-,N/A,,Overcast,340,2013-01-02 09:55:00
3:15 AM,37.4,17.6,45,30.13,10.0,North,6.9,-,N/A,,Overcast,350,2013-01-02 10:15:00
3:55 AM,37.4,17.6,45,30.13,10.0,NNW,9.2,-,N/A,,Clear,340,2013-01-02 10:55:00
4:15 AM,37.4,17.6,45,30.12,10.0,NNW,11.5,-,N/A,,Clear,330,2013-01-02 11:15:00
4:35 AM,37.4,15.8,41,30.12,10.0,NNW,10.4,-,N/A,,Clear,340,2013-01-02 11:35:00
5:15 AM,37.4,15.8,41,30.12,10.0,North,10.4,-,N/A,,Clear,350,2013-01-02 12:15:00
5:35 AM,37.4,15.8,41,30.11,10.0,NNW,11.5,-,N/A,,Clear,340,2013-01-02 12:35:00
5:55 AM,37.4,15.8,41,30.12,10.0,NNW,10.4,-,N/A,,Clear,340,2013-01-02 12:55:00
6:15 AM,35.6,15.8,44,30.12,10.0,North,8.1,-,N/A,,Clear,360,2013-01-02 13:15:00
6:35 AM,35.6,15.8,44,30.12,10.0,North,8.1,-,N/A,,Clear,360,2013-01-02 13:35:00
6:55 AM,35.6,14.0,41,30.12,10.0,North,8.1,-,N/A,,Clear,360,2013-01-02 13:55:00
7:15 AM,35.6,14.0,41,30.12,10.0,North,6.9,-,N/A,,Clear,350,2013-01-02 14:15:00
7:35 AM,35.6,14.0,41,30.12,10.0,North,6.9,-,N/A,,Clear,350,2013-01-02 14:35:00
7:55 AM,33.8,14.0,44,30.13,10.0,NE,3.5,-,N/A,,Clear,40,2013-01-02 14:55:00
8:15 AM,35.6,15.8,44,30.13,10.0,NNW,3.5,-,N/A,,Clear,330,2013-01-02 15:15:00
8:35 AM,37.4,15.8,41,30.14,10.0,NNW,3.5,-,N/A,,Clear,340,2013-01-02 15:35:00
8:55 AM,39.2,15.8,39,30.14,10.0,Calm,Calm,-,N/A,,Clear,0,2013-01-02 15:55:00
9:15 AM,41.0,14.0,33,30.15,10.0,NW,4.6,-,N/A,,Clear,310,2013-01-02 16:15:00
9:35 AM,42.8,14.0,31,30.15,10.0,NNW,4.6,-,N/A,,Clear,330,2013-01-02 16:35:00
9:55 AM,44.6,14.0,29,30.15,10.0,NW,4.6,-,N/A,,Clear,320,2013-01-02 16:55:00
10:15 AM,46.4,14.0,27,30.15,10.0,NW,6.9,-,N/A,,Clear,320,2013-01-02 17:15:00
10:35 AM,48.2,14.0,25,30.15,9.0,WNW,4.6,-,N/A,,Clear,300,2013-01-02 17:35:00
10:55 AM,50.0,14.0,24,30.14,10.0,Calm,Calm,-,N/A,,Clear,0,2013-01-02 17:55:00
11:15 AM,51.8,14.0,22,30.13,10.0,Calm,Calm,-,N/A,,Clear,0,2013-01-02 18:15:00
11:35 AM,53.6,14.0,21,30.12,10.0,Calm,Calm,-,N/A,,Clear,0,2013-01-02 18:35:00
11:55 AM,53.6,14.0,21,30.11,10.0,West,3.5,-,N/A,,Clear,280,2013-01-02 18:55:00
12:15 PM,55.4,12.2,18,30.10,10.0,NNW,3.5,-,N/A,,Clear,330,2013-01-02 19:15:00
12:35 PM,55.4,10.4,17,30.08,10.0,NE,3.5,-,N/A,,Clear,40,2013-01-02 19:35:00
12:55 PM,57.2,10.4,16,30.07,10.0,Calm,Calm,-,N/A,,Clear,0,2013-01-02 19:55:00
1:15 PM,57.2,12.2,17,30.06,10.0,West,4.6,-,N/A,,Clear,280,2013-01-02 20:15:00
1:35 PM,57.2,10.4,16,30.05,10.0,Calm,Calm,-,N/A,,Clear,0,2013-01-02 20:35:00
1:55 PM,59.0,10.4,15,30.04,10.0,Calm,Calm,-,N/A,,Clear,0,2013-01-02 20:55:00
2:15 PM,59.0,10.4,15,30.03,10.0,West,4.6,-,N/A,,Clear,260,2013-01-02 21:15:00
2:35 PM,59.0,10.4,15,30.02,10.0,SW,3.5,-,N/A,,Clear,220,2013-01-02 21:35:00
2:55 PM,59.0,10.4,15,30.02,10.0,WSW,4.6,-,N/A,,Clear,250,2013-01-02 21:55:00
3:35 PM,59.0,10.4,15,30.02,10.0,SSW,3.5,-,N/A,,Clear,200,2013-01-02 22:35:00
3:55 PM,60.8,10.4,14,30.02,10.0,SSW,3.5,-,N/A,,Clear,200,2013-01-02 22:55:00
4:15 PM,59.0,10.4,15,30.02,10.0,Calm,Calm,-,N/A,,Clear,0,2013-01-02 23:15:00
4:35 PM,59.0,15.8,19,30.01,10.0,SSE,3.5,-,N/A,,Clear,160,2013-01-02 23:35:00
4:55 PM,59.0,17.6,20,30.02,9.0,SSW,4.6,-,N/A,,Clear,200,2013-01-02 23:55:00
5:15 PM,57.2,19.4,23,30.02,5.0,South,3.5,-,N/A,,Clear,190,2013-01-03 00:15:00
5:35 PM,55.4,21.2,26,30.02,7.0,South,4.6,-,N/A,,Clear,190,2013-01-03 00:35:00
5:55 PM,53.6,19.4,26,30.02,8.0,SSW,3.5,-,N/A,,Clear,200,2013-01-03 00:55:00
6:15 PM,51.8,19.4,28,30.02,10.0,SSW,3.5,-,N/A,,Clear,200,2013-01-03 01:15:00
6:35 PM,50.0,14.0,24,30.03,10.0,West,8.1,-,N/A,,Clear,280,2013-01-03 01:35:00
6:55 PM,50.0,14.0,24,30.03,10.0,WNW,5.8,-,N/A,,Clear,300,2013-01-03 01:55:00
7:15 PM,48.2,14.0,25,30.03,10.0,NW,6.9,-,N/A,,Clear,310,2013-01-03 02:15:00
7:35 PM,46.4,14.0,27,30.03,10.0,NNW,4.6,-,N/A,,Clear,330,2013-01-03 02:35:00
7:55 PM,44.6,14.0,29,30.03,10.0,NNW,6.9,-,N/A,,Clear,330,2013-01-03 02:55:00
8:15 PM,44.6,14.0,29,30.03,10.0,NNW,10.4,-,N/A,,Clear,340,2013-01-03 03:15:00
8:35 PM,46.4,12.2,25,30.03,10.0,North,10.4,-,N/A,,Clear,350,2013-01-03 03:35:00
8:55 PM,46.4,10.4,23,30.03,10.0,NNW,11.5,-,N/A,,Clear,340,2013-01-03 03:55:00
9:15 PM,46.4,10.4,23,30.03,10.0,NNW,11.5,-,N/A,,Clear,340,2013-01-03 04:15:00
9:55 PM,44.6,10.4,25,30.04,10.0,NNW,9.2,-,N/A,,Mostly Cloudy,340,2013-01-03 04:55:00
10:15 PM,44.6,12.2,27,30.05,10.0,North,9.2,-,N/A,,Partly Cloudy,350,2013-01-03 05:15:00
10:35 PM,44.6,12.2,27,30.05,10.0,North,9.2,-,N/A,,Clear,350,2013-01-03 05:35:00
10:55 PM,44.6,12.2,27,30.05,10.0,North,8.1,-,N/A,,Clear,350,2013-01-03 05:55:00
11:15 PM,44.6,12.2,27,30.06,10.0,ENE,4.6,-,N/A,,Clear,60,2013-01-03 06:15:00
11:35 PM,42.8,12.2,29,30.05,10.0,North,9.2,-,N/A,,Clear,350,2013-01-03 06:35:00
11:55 PM,41.0,15.8,36,30.05,10.0,NE,4.6,-,N/A,,Clear,40,2013-01-03 06:55:00